This demonstration page uses our WeatherBlox Daily Observations layout. Learn more.

Left ArrowRight Arrow

Hourly Observations for December 13, 2015

Temp ( °F °C ) Dew Point ( °F °C ) Humidity (%) Winds ( mph kmh ) Pressure ( in mb ) Visibility ( mi km ) Precip ( " mm )
12:48 am 00:48 Cloudy with Heavy Rain 43 6 43 6 100 100 ENE 9 15 29.74 1007 3 5 0.00 0.00
12:58 am 00:58 Cloudy with Rain 44 6.5 44 6.4 99 99 E 7 11 29.77 1008 3 5 0.20 5.08
1:58 am 01:58 Cloudy with Rain 47 8.2 47 8.2 100 100 ENE 5 7 29.71 1006 4 6 0.31 7.87
2:06 am 02:06 Cloudy with Rain 48 9 48 9 100 100 N 6 9 29.71 1006 5 8 0.00 0.00
2:58 am 02:58 Cloudy with Rain 45 7.2 45 7.1 99 99 NNW 8 13 29.71 1006 5 8 0.08 2.03
3:58 am 03:58 Cloudy with Light Rain 43 6.1 43 6 99 99 N 5 7 29.70 1006 6 10 0.01 0.25
4:58 am 04:58 Cloudy with Mist and Fog 42 5.6 42 5.5 99 99 NNW 6 9 29.67 1005 6 10 0.01 0.25
5:10 am 05:10 Cloudy with Light Rain 43 6 41 5 93 93 N 6 9 29.68 1005 6 10 0.00 0.00
5:29 am 05:29 Cloudy with Drizzle 41 5 41 5 100 100 NNW 9 15 29.71 1006 3 5 0.00 0.00
5:58 am 05:58 Cloudy with Mist and Fog 42 5.4 41 5.2 99 99 NNW 10 17 29.67 1005 4 6 0.00 0.03
6:31 am 06:31 Cloudy with Drizzle 41 5 41 5 100 100 NNW 10 17 29.71 1006 3 5 0.00 0.00
6:58 am 06:58 Cloudy with Drizzle 41 5 41 4.9 99 99 NNW 12 19 29.67 1005 3 4 0.00 0.03
7:01 am 07:01 Cloudy with Light Rain 41 5 41 5 100 100 NNW 10 17 29.71 1006 3 4 0.00 0.00
7:06 am 07:06 Cloudy with Rain 41 5 41 5 100 100 NNW 14 22 29.71 1006 3 5 0.00 0.00
7:35 am 07:35 Cloudy with Light Rain 41 5 39 4 93 93 NNW 15 24 29.71 1006 4 6 0.00 0.00
7:41 am 07:41 Cloudy with Light Rain 41 5 39 4 93 93 N 13 20 29.71 1006 5 8 0.00 0.00
7:58 am 07:58 Cloudy with Rain 40 4.6 40 4.5 99 99 NNW 12 19 29.69 1005 5 8 0.04 1.02
8:58 am 08:58 Cloudy with Heavy Rain 40 4.5 40 4.2 98 98 N 13 20 29.70 1006 5 8 0.09 2.29
9:14 am 09:14 Cloudy with Heavy Rain 41 5 39 4 93 93 N 15 24 29.71 1006 6 10 0.00 0.00
9:58 am 09:58 Cloudy with Rain 40 4.4 40 4.3 99 99 N 10 17 29.67 1005 6 10 0.12 3.05
10:58 am 10:58 Cloudy with Rain 40 4.6 40 4.5 99 99 N 9 15 29.64 1004 6 10 0.09 2.29
11:24 am 11:24 Cloudy with Rain 41 5 41 5 100 100 NNW 7 11 29.65 1004 6 10 0.00 0.00
11:30 am 11:30 Cloudy with Heavy Rain 41 5 41 5 100 100 NNW 6 9 29.71 1006 6 10 0.00 0.00
11:58 am 11:58 Cloudy with Rain 40 4.7 40 4.6 99 99 N 12 19 29.60 1002 6 10 0.10 2.54
11:59 am 11:59 Cloudy with Rain 41 5 41 5 100 100 N 9 15 29.59 1002 6 10 0.00 0.00
12:42 pm 12:42 Cloudy with Light Rain 41 5 39 4 93 93 N 10 17 29.59 1002 8 13 0.00 0.00
12:58 pm 12:58 Cloudy with Rain 40 4.5 40 4.4 99 99 N 10 17 29.55 1001 8 13 0.04 1.02
1:56 pm 13:56 Cloudy with Heavy Rain 41 5 41 5 100 100 N 10 17 29.56 1001 5 8 0.00 0.00
1:58 pm 13:58 Cloudy with Heavy Rain 40 4.7 40 4.6 99 99 N 10 17 29.54 1000 5 8 0.12 3.05
2:56 pm 14:56 Cloudy with Light Rain 41 5 41 5 100 100 N 14 22 29.50 999 7 11 0.00 0.00
2:58 pm 14:58 Cloudy with Light Rain 41 4.9 41 4.8 99 99 N 14 22 29.49 999 7 11 0.10 2.54
3:58 pm 15:58 Cloudy with Light Rain 41 5 41 4.9 99 99 N 8 13 29.49 999 8 13 0.08 2.03
4:58 pm 16:58 Cloudy with Light Rain 41 5.1 41 5 99 99 N 15 24 29.47 998 7 11 0.05 1.27
5:58 pm 17:58 Cloudy with Rain 41 5.1 40 4.7 97 97 NNE 14 22 29.49 999 7 11 0.04 1.02
6:58 pm 18:58 Cloudy with Light Rain 41 4.9 40 4.5 97 97 NNE 16 26 29.40 996 8 13 0.11 2.79
7:58 pm 19:58 Cloudy with Light Rain 41 4.9 40 4.3 96 96 NNE 16 26 29.36 994 10 16 0.02 0.51
8:58 pm 20:58 Cloudy with Rain 41 5 41 5 100 100 N 9 15 29.36 994 4 6 0.05 1.27
9:09 pm 21:09 Cloudy with Heavy Rain 41 5 41 5 100 100 N 12 19 29.35 994 3 4 0.00 0.00
9:34 pm 21:34 Cloudy with Rain 41 5 41 5 100 100 VRB 3 6 29.38 995 2 3 0.00 0.00
9:45 pm 21:45 Cloudy with Heavy Rain 41 5 41 5 100 100 NNE 3 6 29.38 995 2 3 0.00 0.00
9:53 pm 21:53 Cloudy with Heavy Rain 41 5 41 5 100 100 N 8 13 29.38 995 3 4 0.00 0.00
9:58 pm 21:58 Cloudy with Heavy Rain 41 5 41 4.9 99 99 NNW 8 13 29.36 994 3 5 0.15 3.81
10:46 pm 22:46 Cloudy with Rain 41 5 41 5 100 100 N 14 22 29.29 992 3 5 0.00 0.00
10:58 pm 22:58 Cloudy with Heavy Rain 41 5 41 5 100 100 N 13 20 29.31 993 4 6 0.00 0.00
11:58 pm 23:58 Cloudy with Heavy Rain 40 4.6 40 4.4 99 99 N 9 15 29.31 993 4 6 0.20 5.08

Powered by AerisWeather